This is the latest recevied weather packets stored in our database for station/object W2GRK-15. If no packets are shown the sender has not sent any weather packets the latest 10 day(s).
| Time | Temp. | Humidity | Pressure | Rain* | Wind** | Luminosity | Snow |
|---|---|---|---|---|---|---|---|
| 1777296502 | 15° C | 64% | 1024.6 hPa | 0 mm | - | 465 W/m² | - |
| 1777296389 | 15° C | 65% | 1024.7 hPa | 0 mm | - | 457 W/m² | - |
| 1777296083 | 13.89° C | 67% | 1024.7 hPa | 0 mm | - | 438 W/m² | - |
| 1777295777 | 13.89° C | 65% | 1024.5 hPa | 0 mm | - | 422 W/m² | - |
| 1777295704 | 13.89° C | 66% | 1024.7 hPa | 0 mm | - | 416 W/m² | - |
| 1777295246 | 13.33° C | 67% | 1024.5 hPa | 0 mm | - | 391 W/m² | - |
| 1777294875 | 13.89° C | 67% | 1024.4 hPa | 0 mm | - | 372 W/m² | - |
| 1777294650 | 13.33° C | 68% | 1024.4 hPa | 0 mm | - | 357 W/m² | - |
| 1777293619 | 12.78° C | 69% | 1024.5 hPa | 0 mm | - | 289 W/m² | - |
| 1777293571 | 12.78° C | 70% | 1024.4 hPa | 0 mm | - | 285 W/m² | - |
| 1777293136 | 12.78° C | 71% | 1024.2 hPa | 0 mm | - | 233 W/m² | - |
| 1777293023 | 12.78° C | 69% | 1024.3 hPa | 0 mm | - | 216 W/m² | - |
| 1777292605 | 12.22° C | 71% | 1024.2 hPa | 0 mm | - | 172 W/m² | - |
| 1777292540 | 12.22° C | 71% | 1024.1 hPa | 0 mm | - | 167 W/m² | - |
| 1777291590 | 11.67° C | 72% | 1024.1 hPa | 0 mm | - | 112 W/m² | - |
| 1777291461 | 11.67° C | 74% | 1024.1 hPa | 0 mm | - | 108 W/m² | - |
| 1777291107 | 11.11° C | 75% | 1024.3 hPa | 0 mm | - | 93 W/m² | - |
| 1777290978 | 11.11° C | 76% | 1024.3 hPa | 0 mm | - | 92 W/m² | - |
| 1777290531 | 10° C | 82% | 1024 hPa | 0 mm | - | 80 W/m² | - |
| 1777290205 | 9.44° C | 88% | 1023.9 hPa | 0 mm | - | 69 W/m² | - |
| 1777290028 | 8.89° C | 95% | 1023.8 hPa | 0 mm | - | 70 W/m² | - |
| 1777289964 | 8.89° C | 97% | 1024 hPa | 0 mm | - | 69 W/m² | - |
| 1777289722 | 8.33° C | 99% | 1024 hPa | 0 mm | - | 65 W/m² | - |
| 1777288643 | 6.67° C | 99% | 1023.8 hPa | 0 mm | - | 53 W/m² | - |
| 1777287564 | 4.44° C | 99% | 1023.7 hPa | 0 mm | - | 24 W/m² | - |
* Rain latest hour (hover to see other rain measurements)
** Current wind speed in m/s (hover to see current wind gust speed)